Harrisburg, PA

9:02 AM EDT on March 25, 2017 (GMT -0400)
Capital City

Weather History for KCXY - December, 2013

Change the Weather History Date:

Wednesday, December 4, 2013

  Actual Average Record
Temperature  
Mean Temperature 42 °F -  
Max Temperature 51 °F 45 °F 71 °F (1998)
Min Temperature 33 °F 30 °F 15 °F (2002)
Degree Days  
Heating Degree Days 23    
Moisture  
Dew Point 37 °F    
Average Humidity 82    
Maximum Humidity 96    
Minimum Humidity 66    
Precipitation  
Precipitation 0.00 in - - ()
Sea Level Pressure  
Sea Level Pressure 30.06 in    
Wind  
Wind Speed 2 mph (ESE)    
Max Wind Speed 9 mph    
Max Gust Speed -    
Visibility 4 miles    
Events      
Averages and records for this station are not official NWS values.
T = Trace of Precipitation, MM = Missing Value Source: NWS Daily Summary

Daily Weather History Graph

Daily Weather History Graph

Search for Another Location

Airport or City:

Trip Planner

Search our weather history database for the weather conditions in past years. The results will help you decide how hot, cold, wet, or windy it might be!

Date:

Astronomy

Dec. 04, 2013 Rise Set
Actual Time 7:13 AM EST 4:41 PM EST
Civil Twilight 6:43 AM EST 5:11 PM EST
Nautical Twilight 6:09 AM EST 5:45 PM EST
Astronomical Twilight 5:36 AM EST 6:18 PM EST
Moon 8:39 AM EST (12/4) 6:49 PM EST (12/4)
Length of Visible Light 10h 28m
Length of Day
9h 27m
Waxing Crescent, 4% of the Moon is Illuminated
Dec 4
Waxing Crescent
Dec 9
First Quarter
Dec 17
Full
Dec 25
Last Quarter
Jan 1
New

Hourly Weather History & Observations

Time (EST) Temp. Windchill Dew Point Humidity Pressure Visibility Wind Dir Wind Speed Gust Speed Precip Events Conditions
12:28 AM 33.8 °F - 30.2 °F 87% 30.01 in 2.5 mi Calm Calm - N/A   Clear
12:41 AM 35.6 °F 32.8 °F 32.0 °F 87% 30.02 in 3.0 mi North 3.5 mph - N/A   Clear
12:56 AM 35.1 °F - 33.1 °F 92% 30.03 in 3.0 mi Calm Calm - N/A   Clear
1:56 AM 35.1 °F - 32.0 °F 89% 30.03 in 3.0 mi Calm Calm - N/A   Clear
2:31 AM 33.8 °F - 30.2 °F 87% 30.03 in 2.5 mi Calm Calm - N/A   Clear
2:56 AM 34.0 °F - 32.0 °F 92% 30.04 in 2.5 mi Calm Calm - N/A   Clear
3:05 AM 35.6 °F - 33.8 °F 93% 30.03 in 3.0 mi Calm Calm - N/A   Clear
3:56 AM 34.0 °F 31.0 °F 32.0 °F 92% 30.04 in 3.0 mi SSE 3.5 mph - N/A   Scattered Clouds
4:56 AM 34.0 °F 29.8 °F 33.1 °F 96% 30.03 in 2.5 mi ESE 4.6 mph - N/A   Clear
5:11 AM 35.6 °F - 33.8 °F 93% 30.03 in 3.0 mi Calm Calm - N/A   Clear
5:56 AM 36.0 °F - 33.1 °F 89% 30.04 in 4.0 mi Calm Calm - N/A   Clear
6:56 AM 34.0 °F - 32.0 °F 92% 30.06 in 3.0 mi Calm Calm - N/A   Clear
7:26 AM 35.6 °F - 32.0 °F 87% 30.04 in 2.5 mi Calm Calm - N/A   Clear
7:49 AM 33.8 °F - 30.2 °F 87% 30.04 in 1.5 mi Calm Calm - N/A   Clear
7:56 AM 35.1 °F - 33.1 °F 92% 30.06 in 1.8 mi Calm Calm - N/A   Scattered Clouds
8:06 AM 35.6 °F - 33.8 °F 93% 30.05 in 2.0 mi Calm Calm - N/A   Mostly Cloudy
8:31 AM 37.4 °F - 33.8 °F 87% 30.06 in 2.5 mi Calm Calm - N/A   Scattered Clouds
8:56 AM 39.0 °F - 34.0 °F 82% 30.09 in 3.0 mi Calm Calm - N/A   Haze
9:27 AM 39.2 °F - 33.8 °F 81% 30.10 in 3.0 mi Calm Calm - N/A   Haze
9:56 AM 41.0 °F - 36.0 °F 82% 30.12 in 3.0 mi Calm Calm - N/A   Haze
10:56 AM 45.0 °F - 36.0 °F 71% 30.12 in 3.0 mi Calm Calm - N/A   Haze
11:56 AM 46.0 °F 43.1 °F 37.0 °F 71% 30.09 in 4.0 mi ESE 5.8 mph - N/A   Haze
12:05 PM 46.4 °F 42.9 °F 37.4 °F 71% 30.08 in 4.0 mi East 6.9 mph - N/A   Haze
12:54 PM 48.2 °F - 37.4 °F 66% 30.04 in 5.0 mi East 9.2 mph - N/A   Haze
12:56 PM 48.9 °F - 37.9 °F 66% 30.06 in 5.0 mi East 9.2 mph - N/A   Haze
1:56 PM 50.0 °F - 39.0 °F 66% 30.03 in 5.0 mi East 8.1 mph - N/A   Haze
2:56 PM 51.1 °F - 39.9 °F 66% 30.04 in 5.0 mi East 6.9 mph - N/A   Haze
3:56 PM 48.9 °F - 39.9 °F 71% 30.04 in 4.0 mi ESE 5.8 mph - N/A   Haze
4:56 PM 46.9 °F - 39.0 °F 74% 30.05 in 5.0 mi ESE 4.6 mph - N/A   Haze
5:52 PM 46.4 °F 44.3 °F 39.2 °F 76% 30.07 in 5.0 mi ESE 4.6 mph - N/A   Haze
5:56 PM 46.0 °F 43.9 °F 39.9 °F 79% 30.08 in 5.0 mi East 4.6 mph - N/A   Haze
6:36 PM 48.2 °F - 41.0 °F 76% 30.07 in 5.0 mi ESE 4.6 mph - N/A   Haze
6:56 PM 48.0 °F - 41.0 °F 77% 30.08 in 5.0 mi ESE 6.9 mph - N/A   Haze
7:56 PM 48.9 °F - 42.1 °F 77% 30.09 in 5.0 mi East 8.1 mph - N/A   Haze
8:56 PM 48.9 °F - 43.0 °F 80% 30.09 in 6.0 mi East 8.1 mph - N/A   Haze
9:03 PM 48.2 °F - 42.8 °F 82% 30.08 in 6.0 mi East 6.9 mph - N/A   Haze
9:18 PM 48.2 °F - 42.8 °F 82% 30.08 in 6.0 mi East 5.8 mph - N/A   Haze
9:48 PM 48.2 °F - 42.8 °F 82% 30.07 in 6.0 mi East 6.9 mph - N/A   Haze
9:56 PM 48.9 °F - 43.0 °F 80% 30.09 in 6.0 mi East 6.9 mph - N/A   Haze
10:56 PM 48.9 °F - 44.1 °F 83% 30.09 in 5.0 mi ESE 5.8 mph - N/A   Haze
11:56 PM 48.9 °F - 46.0 °F 90% 30.08 in 4.0 mi East 3.5 mph - N/A   Overcast